QPF
0.00 0.00 0.00 0.00 0.00 0.00 0.00 0.00 0.01 0.03 0.04 0.03 0.03 0.02 0.01 0.00 0.00 0.00 0.00 0.00 0.00 0.00 0.00 0.00 0.00 0.00 0.00 0.00 0.00 0.00 0.01 0.01 0.02 0.01 0.00 0.00 0.00 0.00 0.00 0.00 0.00 0.00 0.00 0.00 0.00 0.00 0.00 0.00 0.00 0.00 0.00 0.00 0.00 0.00
0.00 0.00 0.01 0.00 0.00 0.00 0.00 0.00 0.00 0.02 0.03 0.04 0.03 0.03 0.01 0.00 0.00 0.00 0.00 0.00 0.00 0.00 0.00 0.00 0.00 0.00 0.00 0.00 0.00 0.00 0.00 0.00 0.00 0.00 0.00 0.00 0.00 0.00 0.00 0.00 0.00 0.00 0.00 0.00 0.00 0.00 0.00 0.00 0.00 0.00 0.00 0.00 0.00 0.00
0.01 0.01 0.01 0.00 0.00 0.00 0.00 0.00 0.00 0.01 0.02 0.03 0.03 0.03 0.02 0.01 0.02 0.01 0.01 0.01 0.00 0.00 0.00 0.00 0.00 0.00 0.00 0.00 0.00 0.00 0.00 0.00 0.00 0.00 0.00 0.00 0.00 0.00 0.00 0.00 0.00 0.00 0.01 0.01 0.01 0.00 0.00 0.00 0.00 0.00 0.00 0.00 0.00 0.00
0.02 0.02 0.02 0.01 0.00 0.00 0.00 0.00 0.00 0.00 0.01 0.02 0.02 0.02 0.01 0.02 0.02 0.01 0.01 0.01 0.00 0.00 0.00 0.00 0.00 0.00 0.00 0.00 0.00 0.00 0.00 0.00 0.00 0.00 0.00 0.00 0.00 0.00 0.00 0.00 0.00 0.00 0.00 0.00 0.00 0.00 0.00 0.00 0.00 0.00 0.00 0.00 0.00 0.00
0.01 0.01 0.01 0.01 0.00 0.00 0.00 0.00 0.00 0.00 0.01 0.01 0.01 0.01 0.01 0.02 0.01 0.00 0.00 0.00 0.00 0.00 0.01 0.01 0.00 0.00 0.00 0.00 0.00 0.01 0.00 0.01 0.00 0.00 0.00 0.00 0.00 0.00 0.00 0.00 0.00 0.00 0.00 0.00 0.00 0.00 0.00 0.00 0.00 0.00 0.00 0.00 0.00 0.00
0.00 0.00 0.00 0.00 0.00 0.00 0.00 0.00 0.00 0.00 0.00 0.00 0.00 0.01 0.02 0.02 0.00 0.00 0.00 0.00 0.00 0.01 0.00 0.01 0.00 0.00 0.00 0.00 0.00 0.01 0.01 0.01 0.00 0.00 0.00 0.00 0.01 0.01 0.01 0.00 0.00 0.00 0.00 0.00 0.00 0.00 0.00 0.00 0.00 0.00 0.00 0.00 0.00 0.00
0.00 0.01 0.01 0.01 0.00 0.00 0.00 0.00 0.00 0.00 0.00 0.00 0.00 0.01 0.02 0.01 0.00 0.00 0.00 0.00 0.00 0.00 0.01 0.01 0.01 0.00 0.00 0.00 0.01 0.01 0.02 0.02 0.00 0.00 0.00 0.01 0.01 0.01 0.02 0.00 0.00 0.00 0.00 0.00 0.00 0.00 0.00 0.00 0.00 0.00 0.00 0.00 0.00 0.00
0.00 0.01 0.01 0.01 0.01 0.00 0.00 0.00 0.00 0.00 0.00 0.00 0.01 0.02 0.02 0.00 0.00 0.00 0.00 0.00 0.00 0.00 0.01 0.01 0.01 0.00 0.00 0.00 0.01 0.01 0.02 0.00 0.00 0.00 0.01 0.00 0.00 0.01 0.01 0.00 0.00 0.00 0.00 0.00 0.00 0.00 0.00 0.00 0.00 0.00 0.00 0.00 0.00 0.00
0.00 0.00 0.00 0.00 0.00 0.00 0.00 0.00 0.00 0.00 0.00 0.01 0.02 0.01 0.00 0.00 0.00 0.00 0.00 0.00 0.00 0.00 0.00 0.01 0.01 0.01 0.00 0.00 0.01 0.00 0.00 0.00 0.01 0.01 0.00 0.00 0.00 0.01 0.00 0.00 0.00 0.00 0.00 0.00 0.00 0.00 0.00 0.00 0.00 0.00 0.00 0.00 0.00 0.00
0.00 0.00 0.00 0.00 0.00 0.00 0.00 0.00 0.00 0.00 0.00 0.00 0.00 0.00 0.00 0.00 0.00 0.00 0.00 0.00 0.00 0.00 0.01 0.00 0.01 0.01 0.00 0.00 0.01 0.00 0.00 0.00 0.01 0.00 0.00 0.01 0.00 0.00 0.00 0.00 0.00 0.00 0.00 0.00 0.00 0.00 0.00 0.00 0.00 0.00 0.00 0.00 0.00 0.00
0.00 0.00 0.00 0.00 0.00 0.00 0.00 0.00 0.00 0.00 0.00 0.00 0.00 0.00 0.00 0.00 0.00 0.00 0.00 0.00 0.00 0.00 0.00 0.00 0.01 0.01 0.00 0.00 0.00 0.01 0.01 0.01 0.01 0.01 0.02 0.01 0.00 0.00 0.00 0.00 0.00 0.00 0.00 0.00 0.00 0.00 0.00 0.00 0.00 0.00 0.00 0.00 0.00 0.00
0.00 0.00 0.00 0.00 0.00 0.00 0.00 0.00 0.00 0.02 0.02 0.01 0.00 0.00 0.00 0.00 0.01 0.01 0.02 0.01 0.00 0.02 0.00 0.00 0.03 0.01 0.00 0.01 0.02 0.02 0.01 0.01 0.01 0.02 0.01 0.00 0.00 0.00 0.00 0.00 0.00 0.00 0.00 0.00 0.00 0.00 0.00 0.00 0.00 0.00 0.00 0.00 0.00 0.00
0.00 0.00 0.00 0.00 0.00 0.00 0.00 0.00 0.00 0.00 0.00 0.00 0.00 0.01 0.01 0.01 0.01 0.01 0.01 0.00 0.01 0.01 0.00 0.00 0.01 0.00 0.00 0.01 0.02 0.02 0.00 0.01 0.01 0.01 0.00 0.00 0.01 0.00 0.00 0.00 0.00 0.00 0.00 0.00 0.00 0.00 0.00 0.00 0.00 0.00 0.00 0.00 0.00 0.00
0.00 0.00 0.00 0.00 0.00 0.00 0.00 0.00 0.00 0.00 0.00 0.03 0.00 0.00 0.01 0.00 0.02 0.03 0.04 0.05 0.03 0.00 0.00 0.00 0.00 0.00 0.00 0.00 0.02 0.01 0.01 0.02 0.01 0.00 0.00 0.01 0.01 0.00 0.00 0.00 0.00 0.00 0.00 0.00 0.00 0.00 0.00 0.00 0.00 0.00 0.00 0.00 0.00 0.00
0.00 0.00 0.00 0.00 0.00 0.00 0.00 0.00 0.00 0.00 0.00 0.00 0.00 0.01 0.01 0.01 0.02 0.01 0.01 0.01 0.00 0.00 0.00 0.00 0.00 0.01 0.01 0.02 0.01 0.01 0.01 0.00 0.00 0.00 0.05 0.02 0.00 0.00 0.00 0.00 0.00 0.00 0.00 0.00 0.00 0.00 0.00 0.00 0.00 0.00 0.00 0.00 0.00 0.00
0.00 0.00 0.00 0.00 0.00 0.00 0.00 0.00 0.00 0.00 0.00 0.00 0.00 0.01 0.01 0.00 0.00 0.00 0.00 0.00 0.00 0.00 0.01 0.02 0.01 0.02 0.01 0.01 0.01 0.00 0.00 0.00 0.01 0.04 0.02 0.00 0.00 0.00 0.00 0.00 0.00 0.00 0.00 0.00 0.00 0.00 0.00 0.00 0.00 0.00 0.00 0.00 0.00 0.00
0.00 0.00 0.00 0.00 0.00 0.00 0.00 0.00 0.00 0.00 0.00 0.00 0.00 0.00 0.00 0.00 0.00 0.00 0.00 0.00 0.00 0.01 0.01 0.02 0.00 0.01 0.02 0.01 0.00 0.00 0.00 0.02 0.04 0.00 0.00 0.00 0.00 0.00 0.00 0.00 0.00 0.00 0.00 0.00 0.00 0.00 0.00 0.00 0.00 0.00 0.00 0.00 0.00 0.00
0.00 0.00 0.00 0.00 0.00 0.00 0.00 0.00 0.00 0.00 0.00 0.00 0.00 0.00 0.00 0.00 0.00 0.00 0.00 0.00 0.00 0.00 0.00 0.01 0.02 0.02 0.01 0.00 0.00 0.01 0.03 0.02 0.00 0.00 0.00 0.00 0.00 0.00 0.00 0.00 0.00 0.00 0.00 0.00 0.00 0.00 0.00 0.00 0.00 0.00 0.00 0.00 0.00 0.00
0.00 0.00 0.00 0.00 0.00 0.00 0.00 0.00 0.00 0.00 0.00 0.00 0.00 0.00 0.00 0.00 0.00 0.00 0.00 0.00 0.00 0.00 0.01 0.00 0.00 0.00 0.00 0.00 0.01 0.03 0.04 0.02 0.00 0.00 0.00 0.00 0.00 0.00 0.00 0.00 0.00 0.00 0.00 0.00 0.00 0.00 0.00 0.00 0.00 0.00 0.00 0.00 0.00 0.00
0.00 0.00 0.00 0.00 0.00 0.00 0.00 0.00 0.00 0.00 0.00 0.00 0.00 0.00 0.00 0.00 0.00 0.00 0.00 0.00 0.01 0.01 0.01 0.00 0.00 0.00 0.01 0.01 0.01 0.00 0.01 0.00 0.00 0.00 0.00 0.00 0.00 0.00 0.00 0.00 0.00 0.00 0.00 0.00 0.00 0.00 0.00 0.00 0.00 0.00 0.00 0.00 0.00 0.00
0.00 0.00 0.00 0.00 0.00 0.00 0.00 0.00 0.00 0.00 0.00 0.00 0.00 0.00 0.00 0.00 0.00 0.00 0.00 0.01 0.02 0.01 0.00 0.00 0.00 0.01 0.01 0.00 0.00 0.00 0.00 0.00 0.00 0.00 0.00 0.00 0.00 0.00 0.00 0.00 0.00 0.00 0.00 0.00 0.00 0.00 0.00 0.00 0.00 0.00 0.00 0.00 0.00 0.00
0.00 0.00 0.00 0.00 0.00 0.00 0.00 0.00 0.00 0.00 0.00 0.00 0.00 0.00 0.00 0.00 0.00 0.00 0.01 0.02 0.01 0.00 0.00 0.00 0.01 0.01 0.00 0.00 0.00 0.00 0.00 0.00 0.00 0.00 0.00 0.00 0.00 0.00 0.00 0.00 0.00 0.00 0.00 0.00 0.00 0.00 0.00 0.00 0.00 0.00 0.00 0.00 0.00 0.00
0.00 0.00 0.00 0.00 0.00 0.00 0.00 0.00 0.00 0.00 0.00 0.00 0.00 0.00 0.00 0.00 0.01 0.02 0.03 0.00 0.00 0.00 0.00 0.00 0.01 0.01 0.00 0.00 0.00 0.00 0.00 0.00 0.00 0.00 0.00 0.00 0.00 0.00 0.00 0.00 0.00 0.00 0.00 0.00 0.00 0.00 0.00 0.00 0.00 0.00 0.00 0.00 0.00 0.01
0.00 0.00 0.00 0.00 0.00 0.00 0.00 0.00 0.00 0.00 0.00 0.00 0.00 0.00 0.00 0.00 0.01 0.01 0.00 0.00 0.00 0.00 0.00 0.00 0.00 0.00 0.00 0.00 0.00 0.00 0.00 0.00 0.00 0.00 0.00 0.00 0.00 0.00 0.00 0.00 0.00 0.00 0.00 0.00 0.00 0.00 0.00 0.00 0.00 0.00 0.00 0.00 0.00 0.01
0.01 0.00 0.00 0.00 0.00 0.00 0.00 0.00 0.00 0.00 0.00 0.00 0.00 0.00 0.00 0.00 0.01 0.00 0.00 0.00 0.00 0.00 0.00 0.00 0.00 0.00 0.00 0.00 0.00 0.00 0.00 0.00 0.00 0.00 0.00 0.00 0.00 0.00 0.00 0.00 0.00 0.00 0.00 0.00 0.00 0.00 0.00 0.00 0.00 0.00 0.00 0.00 0.00 0.00
0.00 0.00 0.00 0.00 0.00 0.00 0.00 0.00 0.00 0.00 0.00 0.00 0.00 0.00 0.00 0.00 0.00 0.00 0.00 0.00 0.00 0.00 0.00 0.00 0.00 0.00 0.00 0.00 0.00 0.00 0.00 0.00 0.00 0.00 0.00 0.00 0.00 0.00 0.00 0.00 0.00 0.00 0.00 0.00 0.00 0.00 0.00 0.00 0.00 0.00 0.00 0.00 0.00 0.00
0.00 0.00 0.00 0.00 0.00 0.00 0.00 0.00 0.00 0.00 0.00 0.00 0.00 0.00 0.00 0.00 0.00 0.00 0.00 0.00 0.00 0.00 0.00 0.00 0.00 0.00 0.00 0.00 0.00 0.00 0.00 0.00 0.00 0.00 0.00 0.00 0.00 0.00 0.00 0.00 0.00 0.00 0.00 0.00 0.00 0.00 0.00 0.00 0.00 0.00 0.00 0.00 0.00 0.00
0.00 0.00 0.00 0.00 0.00 0.00 0.00 0.00 0.00 0.00 0.00 0.00 0.00 0.00 0.00 0.00 0.00 0.00 0.00 0.00 0.00 0.00 0.00 0.00 0.00 0.00 0.00 0.00 0.00 0.00 0.00 0.00 0.00 0.00 0.00 0.00 0.00 0.00 0.00 0.00 0.00 0.00 0.00 0.00 0.00 0.00 0.00 0.00 0.00 0.00 0.00 0.00 0.00 0.00
0.01 0.00 0.00 0.00 0.00 0.00 0.00 0.00 0.00 0.00 0.00 0.00 0.00 0.00 0.00 0.00 0.00 0.00 0.00 0.00 0.00 0.00 0.00 0.00 0.00 0.00 0.00 0.00 0.00 0.00 0.00 0.00 0.00 0.00 0.00 0.00 0.00 0.00 0.00 0.00 0.00 0.00 0.00 0.00 0.00 0.00 0.00 0.00 0.00 0.00 0.00 0.00 0.00 0.00
0.00 0.00 0.01 0.01 0.00 0.00 0.00 0.00 0.01 0.00 0.00 0.00 0.00 0.00 0.00 0.00 0.00 0.00 0.00 0.00 0.00 0.00 0.00 0.00 0.00 0.00 0.00 0.00 0.00 0.00 0.00 0.00 0.00 0.00 0.00 0.00 0.00 0.00 0.00 0.00 0.00 0.00 0.00 0.00 0.00 0.00 0.00 0.00 0.00 0.00 0.00 0.00 0.00 0.00
0.02 0.02 0.01 0.01 0.01 0.00 0.01 0.00 0.00 0.00 0.00 0.00 0.00 0.00 0.00 0.00 0.00 0.00 0.00 0.00 0.00 0.00 0.00 0.00 0.00 0.00 0.00 0.00 0.00 0.00 0.00 0.00 0.00 0.00 0.00 0.00 0.00 0.00 0.00 0.00 0.00 0.00 0.00 0.00 0.00 0.00 0.00 0.00 0.00 0.00 0.00 0.00 0.00 0.00
0.02 0.02 0.02 0.01 0.02 0.01 0.00 0.00 0.00 0.00 0.00 0.00 0.00 0.00 0.00 0.00 0.00 0.00 0.00 0.00 0.00 0.00 0.00 0.00 0.00 0.00 0.00 0.00 0.00 0.00 0.00 0.00 0.00 0.00 0.00 0.00 0.00 0.00 0.00 0.00 0.00 0.00 0.00 0.00 0.00 0.00 0.00 0.00 0.00 0.00 0.00 0.00 0.00 0.00
0.02 0.02 0.02 0.02 0.03 0.01 0.00 0.00 0.00 0.00 0.00 0.00 0.01 0.00 0.00 0.00 0.00 0.00 0.00 0.00 0.00 0.00 0.00 0.00 0.00 0.00 0.00 0.00 0.00 0.00 0.00 0.00 0.00 0.00 0.00 0.00 0.00 0.00 0.00 0.00 0.00 0.00 0.00 0.00 0.00 0.00 0.00 0.00 0.00 0.00 0.00 0.00 0.00 0.00
MSLP
996.43 995.74 995.16 994.79 994.33 993.60 992.96 992.68 992.51 992.32 992.97 993.28 993.64 993.97 993.51 992.94 993.50 994.10 997.23 997.86 997.81 999.74 1001.35 1001.00 1000.99 1001.02 1000.93 1000.67 1001.07 1001.93 1002.71 1003.07 1004.19 1004.92 1005.44 1005.67 1005.13 1003.96 1003.56 1002.48 1002.18 1003.08 1003.73 1003.98 1004.58 1004.25 1000.35 999.42 998.66 998.66 997.11 997.20 996.99 996.92
996.10 994.82 994.42 993.87 993.80 993.73 993.31 993.24 992.97 992.54 992.99 993.55 994.58 995.09 994.99 995.20 994.87 994.84 997.36 998.23 998.66 1000.01 1002.48 1002.54 1002.79 1003.11 1002.67 1002.79 1002.96 1003.77 1003.85 1004.61 1005.41 1005.18 1005.54 1005.66 1005.20 1004.15 1003.39 1002.32 1001.74 1001.97 1001.86 1002.05 1002.16 999.99 999.87 999.09 998.43 998.20 998.37 998.63 998.78 998.31
994.86 994.05 993.25 993.31 993.21 993.39 993.34 993.26 993.15 992.84 993.01 993.73 994.87 995.25 995.46 996.10 996.58 997.00 998.11 998.62 999.39 1001.34 1002.79 1002.81 1003.11 1003.47 1003.38 1003.53 1003.87 1004.04 1004.84 1005.64 1006.61 1006.73 1006.72 1006.27 1005.40 1005.16 1004.04 1003.45 1002.39 1000.97 1000.82 1001.06 1001.09 999.46 999.60 999.62 999.96 1000.66 1000.98 1000.62 1000.77 1000.56
993.61 992.99 992.36 992.09 992.60 992.91 993.17 993.35 993.43 993.17 993.56 994.25 994.90 995.29 995.91 996.68 997.14 997.68 998.13 998.99 999.47 1000.90 1001.91 1003.18 1003.25 1003.03 1003.39 1004.04 1004.15 1004.22 1005.39 1006.54 1007.33 1007.40 1007.25 1007.14 1006.90 1006.60 1005.57 1004.90 1004.28 1002.90 1001.91 1001.22 1000.77 1000.20 1000.66 1000.51 1001.62 1002.11 1001.87 1001.70 1001.76 1001.78
992.84 991.96 991.22 991.18 991.65 992.45 993.08 993.41 993.72 993.97 993.86 994.36 994.90 995.38 996.09 997.00 997.73 998.66 998.98 999.19 999.22 999.71 1001.02 1002.10 1002.57 1003.08 1003.31 1003.50 1004.04 1004.66 1005.52 1006.58 1007.29 1007.81 1007.66 1007.46 1007.29 1007.15 1006.30 1005.65 1004.08 1002.91 1001.74 1002.05 1002.03 1002.33 1002.72 1001.73 1001.88 1001.63 1001.69 1002.02 1001.45 1001.34
992.25 990.63 989.68 990.42 991.51 992.43 993.20 993.72 993.93 994.30 994.61 994.96 994.93 995.85 996.69 997.60 998.32 998.85 1000.05 1000.00 999.42 998.71 999.82 1001.58 1002.96 1003.08 1003.27 1003.45 1003.92 1004.55 1005.44 1006.32 1006.85 1007.46 1007.57 1007.17 1006.85 1006.77 1006.37 1004.92 1002.61 1002.20 1001.74 1001.43 1001.59 1001.45 1001.08 1000.66 1001.08 1001.24 1001.30 1001.29 1001.29 1001.60
992.81 991.38 990.55 991.06 991.93 992.79 993.44 993.93 994.37 994.61 994.76 995.22 995.59 996.22 997.29 997.95 998.59 999.40 999.69 999.13 999.45 999.57 1000.31 1001.71 1002.79 1003.82 1003.52 1003.52 1004.06 1004.65 1005.09 1006.06 1006.67 1007.05 1006.97 1006.64 1006.52 1006.39 1005.57 1003.38 1002.04 1002.12 1001.92 1001.52 1001.16 1001.06 1000.55 1000.48 1000.22 1000.65 1000.76 1000.70 1000.68 1000.57
993.94 993.23 992.80 992.76 992.99 993.30 993.65 994.15 994.47 994.67 995.15 995.84 996.47 997.17 997.98 998.60 999.52 999.83 999.85 999.94 1000.29 1000.44 1000.61 1000.96 1002.45 1003.42 1003.83 1003.70 1004.15 1004.65 1005.25 1006.20 1006.72 1006.82 1007.08 1006.16 1005.53 1005.19 1004.24 1002.68 1001.75 1001.22 1000.94 1000.68 1000.61 1000.54 1000.24 1000.17 1000.29 1000.31 1000.37 1000.56 1000.62 1000.41
995.04 994.56 994.29 994.16 994.20 994.39 994.65 994.86 994.95 995.24 995.74 996.48 997.37 998.11 999.07 999.77 1000.28 1000.60 1000.74 1000.79 1000.92 1001.12 1000.67 1000.43 1000.69 1002.49 1003.39 1003.74 1004.42 1005.02 1005.25 1005.93 1006.47 1006.22 1005.49 1004.99 1004.24 1003.41 1002.24 1001.89 1001.23 1000.80 1000.62 1000.32 1000.05 1000.08 1000.21 1000.27 1000.26 1000.24 1000.36 1000.50 1000.95 1000.99
996.10 995.64 995.22 995.05 995.09 995.19 995.25 995.48 995.86 996.29 996.78 997.37 998.12 998.95 999.97 1000.01 1000.43 1000.71 1001.25 1001.58 1001.51 1001.12 1000.37 999.79 999.75 1001.38 1002.37 1003.05 1003.79 1004.56 1004.85 1004.77 1004.76 1004.05 1003.71 1003.68 1002.75 1001.98 1001.27 1001.10 1000.93 1001.03 1000.80 1000.54 1000.51 1000.61 1000.77 1000.89 1000.95 1000.86 1000.81 1001.46 1001.63 1001.88
997.31 996.86 996.48 996.20 996.15 996.30 996.51 996.83 996.99 997.01 997.09 997.65 998.83 999.87 1000.15 1000.18 1000.33 1000.74 1000.97 1000.89 1001.02 1001.05 1000.45 999.77 999.74 1000.61 1001.58 1001.94 1002.76 1002.96 1003.56 1003.80 1003.56 1002.62 1002.65 1002.09 1001.36 1000.62 1000.94 1001.16 1001.30 1001.39 1001.40 1001.29 1001.43 1001.68 1001.79 1001.79 1001.85 1002.12 1002.70 1003.20 1003.59 1003.98
998.48 998.11 997.76 997.50 997.45 997.48 997.54 997.46 997.38 997.33 997.52 997.58 998.89 1000.13 1000.25 999.96 1000.37 1000.43 1000.29 1000.40 999.98 999.36 999.62 999.37 1000.12 1000.65 1001.17 1001.79 1002.07 1002.87 1002.99 1003.21 1002.96 1002.81 1002.68 1001.62 1000.72 1000.88 1001.24 1001.47 1001.91 1002.43 1002.73 1002.84 1003.39 1003.72 1004.05 1004.09 1004.21 1004.51 1004.81 1005.06 1005.40 1005.71
999.44 999.16 999.00 998.70 998.46 998.23 998.09 997.77 997.70 998.02 997.69 997.58 998.58 999.93 999.86 999.84 999.63 999.24 999.06 998.70 998.33 998.68 998.91 999.30 1000.58 1001.49 1001.78 1001.76 1002.17 1002.74 1002.94 1002.92 1002.53 1002.63 1001.96 1001.03 1000.86 1001.40 1001.90 1002.25 1003.12 1003.75 1004.09 1004.54 1005.07 1005.47 1005.56 1005.58 1005.60 1005.82 1006.00 1006.26 1006.35 1006.87
1000.07 999.80 999.66 999.63 999.51 999.26 998.86 998.92 998.72 998.68 998.47 997.82 998.29 999.19 999.28 999.24 998.72 998.19 997.76 997.60 998.00 998.49 999.01 999.87 1000.94 1001.42 1001.72 1002.05 1002.43 1002.83 1002.60 1002.57 1002.35 1001.94 1001.12 1001.14 1001.95 1002.24 1002.75 1003.51 1004.16 1004.84 1005.30 1005.65 1006.07 1006.38 1006.31 1006.62 1006.83 1007.07 1007.48 1007.19 1007.58 1007.93
1000.43 1000.09 999.72 999.76 999.53 999.33 999.16 998.98 998.90 998.75 997.66 997.54 997.70 998.29 998.38 998.58 998.85 998.87 998.65 998.74 998.81 999.04 999.88 1000.67 1001.26 1001.29 1001.51 1002.20 1002.32 1002.43 1002.50 1001.84 1000.99 1000.38 1000.82 1001.89 1002.64 1002.81 1003.41 1004.15 1004.90 1005.34 1005.60 1006.03 1006.58 1006.95 1007.01 1007.44 1007.52 1008.03 1008.17 1008.28 1008.49 1008.93
1000.65 1000.15 1000.34 1000.15 999.72 999.26 998.84 998.32 997.95 997.42 997.41 997.53 997.76 998.21 998.38 999.15 999.75 999.63 999.70 999.94 999.98 1000.04 1000.36 1000.56 1000.89 1001.19 1001.41 1001.46 1001.53 1001.40 1000.94 1000.38 1000.12 1000.68 1001.66 1002.43 1002.91 1003.34 1004.02 1004.78 1005.20 1005.49 1005.60 1006.29 1006.81 1007.18 1007.57 1007.88 1008.05 1008.37 1008.63 1008.94 1009.24 1009.55
1000.79 1000.19 1000.60 1000.29 999.95 999.34 998.94 998.56 997.40 997.28 997.44 997.39 998.04 998.25 998.50 999.01 999.70 1000.18 1000.31 1000.52 1000.51 1000.55 1000.25 1000.08 1000.17 1000.14 1000.40 1000.41 1000.28 1000.00 999.71 1000.00 1000.70 1001.78 1002.24 1002.67 1003.27 1004.03 1004.83 1005.39 1005.84 1005.99 1006.09 1006.63 1007.06 1007.33 1007.65 1007.93 1008.10 1008.29 1008.73 1009.14 1009.37 1009.70
1000.75 1000.63 1000.63 1000.55 1000.28 999.28 998.38 998.37 997.93 997.70 997.49 997.70 997.94 998.52 998.80 999.45 999.88 1000.23 1000.44 1000.72 1000.94 1000.68 1000.42 1000.03 999.86 999.78 999.71 999.39 999.17 999.31 999.68 1000.63 1001.36 1002.05 1002.74 1003.34 1003.94 1004.56 1005.21 1005.67 1006.09 1006.24 1006.67 1007.05 1007.48 1007.69 1007.82 1007.92 1008.15 1008.63 1008.92 1009.20 1009.31 1009.50
1001.51 1001.44 1001.22 1001.10 1001.00 1000.31 998.86 998.63 998.32 997.78 997.68 997.91 998.16 998.54 998.84 999.49 999.97 1000.46 1000.75 1000.96 1001.02 1001.00 1000.81 1000.27 999.72 999.10 998.83 998.73 998.89 999.19 999.77 1000.51 1001.64 1002.72 1003.44 1003.96 1004.52 1005.14 1005.55 1005.87 1006.16 1006.60 1007.15 1007.51 1007.46 1007.77 1008.17 1008.37 1008.63 1008.91 1009.23 1009.47 1009.66 1010.21
1001.67 1001.29 1001.14 1001.02 1000.95 999.70 998.86 998.23 998.27 997.80 997.50 997.87 998.19 998.47 998.92 999.31 999.78 1000.55 1000.92 1001.05 1001.18 1001.15 1000.73 1000.04 999.16 998.79 998.88 999.03 999.26 999.51 999.91 1000.52 1001.67 1003.07 1004.03 1004.63 1005.14 1005.57 1005.94 1006.07 1006.51 1006.97 1007.28 1007.57 1007.95 1008.29 1008.58 1008.88 1009.25 1009.83 1010.17 1010.47 1010.53 1010.90
1000.92 1000.55 1000.75 1000.61 999.94 999.64 998.64 997.91 997.81 997.47 997.36 997.80 997.98 998.29 998.57 999.05 999.56 1000.21 1000.66 1000.97 1000.84 1000.27 999.58 999.18 999.04 999.11 999.48 999.91 999.94 999.97 1000.39 1000.95 1001.64 1002.35 1003.51 1004.60 1005.22 1005.38 1005.67 1006.13 1006.56 1007.02 1007.49 1007.90 1008.26 1008.73 1008.99 1009.34 1009.76 1010.24 1010.73 1011.11 1011.47 1011.77
1000.87 1000.56 999.88 999.93 999.50 999.13 998.64 997.99 997.34 997.07 997.50 997.45 997.98 998.38 998.41 999.15 999.49 999.48 999.64 1000.17 999.87 999.35 999.01 998.84 998.72 999.18 999.95 1000.45 1000.61 1000.43 1000.91 1001.29 1001.82 1002.44 1003.33 1004.35 1004.79 1005.27 1005.81 1006.25 1006.73 1007.25 1007.70 1008.12 1008.49 1008.99 1009.46 1009.82 1010.35 1010.75 1011.18 1011.67 1011.99 1012.49
1001.32 1000.72 999.96 999.51 999.60 999.18 998.75 998.11 997.44 997.21 997.36 997.50 997.80 998.07 997.99 997.95 997.97 998.45 998.97 998.57 998.39 998.37 998.45 998.45 998.43 998.63 999.43 1000.51 1000.82 1001.08 1001.31 1001.46 1001.98 1002.73 1003.50 1004.28 1004.75 1005.40 1006.04 1006.64 1006.99 1007.43 1007.88 1008.37 1008.81 1009.37 1009.97 1010.54 1011.06 1011.33 1011.68 1011.87 1012.18 1012.58
1001.39 1000.62 1000.13 999.67 999.26 999.01 998.90 998.41 997.76 997.18 997.04 997.14 997.59 997.83 997.52 997.41 997.75 997.89 997.42 997.06 996.83 997.07 997.48 997.75 998.04 998.67 999.68 1000.26 1000.57 1000.98 1001.21 1001.35 1001.84 1002.79 1003.55 1004.20 1004.94 1005.63 1006.14 1006.71 1007.21 1007.54 1007.92 1008.48 1009.08 1009.79 1010.34 1010.84 1011.41 1011.53 1011.94 1012.22 1012.54 1012.89
1001.07 1000.49 1000.11 999.32 998.97 998.92 998.70 998.29 997.57 997.19 997.06 997.39 997.28 997.33 997.42 997.69 997.85 997.36 996.51 996.01 996.00 996.32 996.67 997.18 997.73 998.26 998.99 999.65 1000.01 1000.52 1001.11 1001.11 1001.68 1002.61 1003.38 1004.02 1004.75 1005.70 1006.49 1007.06 1007.51 1007.85 1008.25 1008.78 1009.39 1009.93 1010.54 1011.09 1011.39 1011.80 1012.16 1012.51 1012.93 1013.30
999.87 999.19 999.01 998.23 998.20 998.08 997.71 997.44 997.36 997.21 997.16 997.41 997.34 997.40 997.92 998.18 998.07 997.11 996.17 995.92 995.94 996.40 997.00 997.16 997.43 997.91 998.39 998.75 999.37 1000.11 1000.75 1000.93 1001.58 1002.55 1003.35 1003.90 1004.58 1005.22 1006.17 1006.94 1007.58 1008.23 1008.52 1008.92 1009.45 1010.00 1010.59 1011.07 1011.56 1012.16 1012.78 1013.29 1013.45 1013.65
998.85 998.26 997.85 997.58 997.26 997.33 996.90 996.74 996.69 996.84 996.88 997.06 997.09 997.94 998.35 998.24 997.35 996.68 996.95 997.18 997.06 997.34 997.32 997.59 997.57 997.97 998.10 998.50 999.08 999.95 1000.60 1001.18 1001.78 1002.82 1003.67 1004.40 1004.98 1005.32 1005.92 1006.55 1007.20 1007.94 1008.58 1009.07 1009.51 1009.98 1010.55 1011.18 1011.83 1012.31 1012.87 1013.38 1013.67 1013.94
997.94 997.40 997.46 997.54 997.30 997.14 997.07 996.89 996.86 996.70 996.65 996.70 996.96 997.39 997.44 997.19 996.91 997.39 997.78 998.43 998.57 998.45 998.55 998.49 998.39 998.39 998.46 999.37 1000.03 1000.80 1001.81 1002.41 1003.11 1003.78 1004.50 1005.48 1006.20 1006.50 1006.67 1006.95 1007.46 1008.13 1008.78 1009.36 1009.80 1010.24 1010.77 1011.30 1011.84 1012.43 1013.00 1013.60 1014.11 1014.41
997.17 996.89 997.03 997.36 997.54 997.19 996.90 996.75 996.52 996.28 996.06 996.13 996.42 996.72 997.01 997.21 998.08 998.30 998.92 999.18 999.28 999.23 999.28 999.60 999.95 1000.04 1000.26 1000.69 1000.97 1001.57 1002.33 1002.87 1003.31 1004.03 1004.70 1005.65 1006.57 1007.37 1007.66 1007.97 1008.41 1008.94 1009.48 1010.00 1010.42 1010.72 1011.08 1011.53 1012.05 1012.77 1013.44 1014.04 1014.47 1014.80
996.72 996.67 996.89 997.08 997.25 996.93 996.59 996.46 996.53 996.69 996.34 996.73 996.73 997.08 997.31 998.17 998.97 999.40 999.52 999.64 999.64 999.64 999.81 1000.06 1000.43 1000.59 1000.93 1001.23 1001.97 1002.73 1003.14 1003.37 1003.59 1003.80 1004.19 1005.10 1005.97 1007.16 1007.75 1008.28 1008.87 1009.50 1010.06 1010.56 1011.07 1011.78 1012.09 1012.49 1012.99 1013.50 1014.03 1014.44 1014.84 1015.22
996.38 996.27 996.44 996.68 996.77 996.86 996.85 997.41 997.61 997.62 997.51 997.47 997.73 997.70 997.74 998.44 999.19 999.64 999.75 999.80 999.89 999.99 1000.16 1000.47 1000.77 1001.05 1001.33 1001.84 1002.25 1002.73 1003.27 1003.78 1003.86 1004.02 1004.35 1005.22 1006.21 1007.05 1007.70 1008.32 1008.92 1009.54 1010.23 1010.85 1011.43 1011.87 1012.37 1012.75 1013.17 1013.63 1014.04 1014.53 1015.10 1015.44
996.29 996.09 996.17 996.21 996.43 997.20 997.53 997.64 997.53 997.51 997.57 997.74 997.74 997.98 998.41 998.70 998.94 999.58 999.97 1000.06 1000.17 1000.24 1000.28 1000.43 1000.72 1001.18 1001.57 1002.05 1002.53 1002.96 1003.19 1003.80 1004.22 1004.60 1005.03 1005.71 1006.50 1007.25 1007.95 1008.57 1009.22 1009.81 1010.43 1010.99 1011.42 1011.96 1012.25 1012.69 1013.15 1013.72 1014.40 1014.96 1015.27 1015.77
996.12 996.09 996.07 996.16 996.15 996.68 997.21 997.36 997.26 997.07 997.28 997.29 997.25 997.56 997.88 998.24 998.74 999.78 1000.31 1000.41 1000.35 1000.18 1000.31 1000.58 1000.85 1001.32 1001.80 1002.24 1002.74 1003.27 1003.63 1004.09 1004.60 1005.08 1005.60 1006.21 1006.89 1007.61 1008.29 1008.92 1009.43 1009.98 1010.47 1010.99 1011.49 1011.90 1012.38 1012.86 1013.47 1014.06 1014.64 1015.28 1015.86 1016.37
Thickness
5361 5366 5370 5376 5387 5398 5411 5418 5422 5432 5438 5445 5453 5465 5481 5501 5509 5514 5502 5507 5520 5508 5504 5517 5525 5545 5556 5572 5571 5567 5565 5556 5559 5558 5558 5540 5553 5568 5576 5599 5594 5579 5574 5576 5575 5570 5590 5639 5644 5620 5648 5651 5652 5651
5358 5375 5379 5386 5392 5397 5407 5412 5418 5430 5435 5442 5446 5453 5468 5477 5491 5502 5492 5495 5503 5498 5486 5494 5501 5507 5521 5523 5531 5520 5536 5531 5523 5557 5542 5543 5544 5561 5574 5577 5601 5577 5587 5586 5588 5605 5623 5630 5630 5638 5631 5622 5621 5626
5369 5380 5391 5390 5395 5399 5406 5413 5420 5428 5435 5440 5442 5451 5459 5465 5471 5480 5480 5485 5489 5476 5473 5484 5490 5493 5503 5507 5511 5515 5510 5511 5501 5504 5509 5511 5554 5532 5561 5563 5570 5596 5595 5582 5584 5611 5613 5615 5606 5592 5591 5595 5594 5596
5381 5390 5398 5404 5400 5402 5406 5411 5417 5426 5429 5433 5438 5444 5450 5453 5459 5466 5473 5475 5482 5477 5474 5470 5479 5488 5491 5491 5497 5503 5498 5492 5487 5489 5491 5496 5508 5501 5520 5525 5529 5556 5564 5571 5573 5586 5576 5583 5569 5568 5571 5570 5568 5568
5391 5402 5411 5413 5413 5409 5407 5411 5415 5419 5428 5431 5439 5442 5443 5445 5447 5447 5454 5462 5471 5477 5469 5471 5476 5477 5482 5485 5486 5487 5483 5477 5476 5476 5481 5489 5485 5488 5494 5498 5524 5547 5549 5537 5529 5536 5533 5551 5553 5556 5554 5549 5553 5549
5400 5416 5428 5422 5416 5411 5407 5407 5413 5417 5421 5423 5433 5433 5434 5435 5434 5437 5432 5445 5458 5472 5476 5469 5458 5462 5468 5472 5473 5474 5471 5466 5469 5465 5463 5467 5477 5480 5480 5501 5545 5541 5528 5532 5531 5537 5540 5550 5547 5544 5539 5537 5534 5529
5402 5413 5424 5422 5417 5412 5409 5409 5408 5411 5417 5421 5422 5426 5426 5426 5427 5427 5433 5443 5448 5455 5456 5448 5442 5438 5451 5457 5456 5454 5457 5453 5455 5452 5455 5465 5466 5465 5467 5500 5535 5518 5512 5511 5515 5516 5526 5533 5536 5530 5526 5526 5524 5524
5399 5403 5407 5411 5412 5412 5412 5410 5411 5414 5413 5412 5413 5414 5413 5413 5411 5415 5420 5425 5430 5434 5444 5446 5430 5434 5433 5437 5436 5441 5438 5434 5432 5436 5434 5443 5456 5456 5461 5497 5505 5506 5504 5507 5504 5505 5511 5517 5512 5513 5512 5506 5503 5502
5396 5397 5399 5401 5402 5404 5404 5405 5409 5410 5410 5408 5406 5403 5400 5398 5395 5399 5402 5407 5414 5420 5428 5439 5445 5428 5427 5421 5422 5422 5426 5420 5420 5424 5432 5444 5450 5451 5470 5477 5490 5492 5490 5490 5492 5491 5486 5488 5491 5489 5485 5482 5476 5473
5390 5393 5396 5397 5397 5397 5399 5399 5399 5398 5398 5398 5396 5391 5385 5388 5390 5392 5389 5389 5395 5405 5426 5437 5449 5427 5429 5421 5416 5415 5414 5422 5423 5433 5439 5436 5448 5457 5468 5472 5472 5470 5471 5470 5468 5466 5462 5459 5461 5462 5457 5450 5447 5441
5381 5385 5388 5390 5390 5389 5388 5386 5386 5389 5392 5391 5385 5379 5379 5382 5386 5384 5386 5397 5397 5404 5419 5430 5439 5428 5427 5421 5416 5428 5414 5420 5422 5443 5437 5442 5452 5460 5453 5449 5448 5449 5449 5448 5446 5443 5440 5436 5434 5427 5412 5406 5399 5393
5372 5375 5378 5380 5381 5381 5380 5381 5381 5384 5383 5387 5378 5369 5371 5382 5378 5383 5390 5399 5412 5426 5418 5422 5417 5418 5417 5415 5415 5407 5409 5414 5415 5426 5414 5423 5445 5442 5435 5433 5430 5423 5417 5415 5407 5402 5394 5391 5389 5383 5377 5372 5368 5364
5363 5365 5368 5371 5373 5374 5375 5377 5376 5374 5378 5381 5374 5363 5373 5376 5380 5391 5391 5411 5419 5418 5416 5413 5400 5395 5398 5408 5403 5403 5396 5399 5417 5403 5414 5435 5437 5428 5421 5417 5406 5399 5393 5386 5379 5374 5370 5367 5364 5361 5357 5353 5353 5349
5359 5360 5362 5362 5364 5365 5368 5367 5369 5371 5375 5382 5379 5368 5379 5379 5398 5412 5421 5423 5420 5414 5412 5407 5392 5396 5398 5395 5397 5390 5405 5406 5398 5399 5419 5429 5411 5409 5404 5394 5387 5376 5367 5363 5361 5358 5356 5352 5347 5343 5339 5336 5334 5331
5354 5358 5361 5362 5363 5365 5367 5368 5370 5373 5389 5389 5393 5384 5393 5398 5395 5396 5402 5401 5405 5405 5396 5389 5390 5398 5397 5383 5395 5396 5386 5393 5410 5423 5423 5404 5400 5400 5391 5380 5370 5363 5359 5358 5353 5347 5343 5340 5337 5331 5327 5324 5321 5317
5351 5356 5355 5356 5360 5365 5369 5375 5379 5387 5390 5391 5393 5388 5395 5380 5371 5379 5381 5379 5387 5387 5391 5393 5388 5384 5384 5392 5393 5392 5403 5411 5424 5418 5403 5400 5395 5389 5378 5365 5361 5360 5359 5353 5347 5341 5335 5330 5328 5323 5319 5313 5308 5305
5349 5358 5351 5353 5357 5363 5368 5374 5386 5387 5387 5392 5383 5390 5390 5387 5377 5371 5374 5374 5379 5381 5383 5393 5388 5392 5400 5395 5398 5412 5414 5420 5406 5392 5392 5389 5384 5373 5359 5352 5346 5346 5350 5344 5339 5335 5331 5327 5324 5321 5315 5310 5306 5300
5349 5350 5348 5349 5352 5362 5373 5375 5378 5380 5382 5385 5380 5380 5383 5378 5374 5373 5374 5374 5372 5378 5384 5389 5397 5394 5393 5400 5408 5414 5411 5396 5391 5385 5379 5375 5368 5360 5351 5345 5340 5341 5337 5333 5328 5327 5325 5323 5320 5314 5310 5306 5304 5299
5337 5338 5340 5342 5344 5350 5365 5366 5372 5373 5378 5379 5380 5379 5379 5372 5371 5367 5367 5367 5370 5371 5374 5382 5388 5396 5405 5410 5408 5405 5398 5389 5378 5369 5362 5359 5353 5346 5343 5340 5338 5334 5328 5325 5327 5323 5318 5315 5311 5307 5302 5298 5294 5285
5331 5335 5338 5339 5341 5357 5361 5367 5368 5372 5375 5374 5374 5373 5371 5369 5369 5360 5358 5360 5360 5361 5365 5373 5388 5397 5400 5398 5396 5395 5391 5385 5372 5357 5349 5345 5343 5340 5338 5338 5333 5329 5326 5323 5318 5314 5310 5305 5299 5291 5285 5280 5278 5272
5333 5338 5337 5340 5347 5352 5363 5368 5367 5373 5375 5369 5372 5370 5369 5367 5363 5355 5352 5352 5352 5362 5373 5382 5386 5390 5383 5380 5382 5386 5380 5376 5369 5366 5353 5341 5339 5341 5339 5335 5330 5325 5320 5314 5310 5304 5301 5296 5290 5283 5276 5269 5263 5257
5331 5331 5342 5341 5348 5353 5358 5366 5372 5376 5370 5373 5366 5364 5364 5349 5347 5354 5358 5346 5353 5368 5376 5380 5384 5379 5369 5366 5363 5372 5366 5365 5363 5357 5350 5343 5343 5338 5333 5329 5325 5319 5314 5309 5305 5298 5293 5288 5280 5274 5267 5259 5252 5243
5318 5326 5337 5343 5340 5343 5350 5360 5365 5370 5364 5365 5365 5360 5363 5365 5368 5362 5343 5355 5363 5370 5373 5377 5381 5382 5376 5357 5358 5357 5353 5360 5357 5353 5347 5342 5339 5332 5326 5320 5318 5313 5308 5302 5297 5291 5284 5275 5268 5264 5257 5252 5245 5236
5311 5322 5322 5330 5340 5342 5346 5347 5359 5367 5371 5369 5361 5354 5365 5368 5365 5356 5357 5366 5374 5377 5378 5378 5380 5375 5364 5359 5359 5355 5356 5360 5358 5349 5343 5339 5332 5326 5323 5316 5311 5308 5305 5299 5292 5283 5275 5269 5260 5256 5248 5242 5233 5225
5307 5311 5316 5324 5335 5335 5336 5339 5353 5361 5359 5357 5363 5363 5363 5363 5354 5359 5368 5377 5381 5382 5382 5382 5379 5376 5370 5365 5366 5361 5356 5361 5356 5347 5342 5338 5331 5321 5314 5309 5305 5302 5298 5292 5284 5277 5269 5262 5255 5248 5240 5233 5223 5213
5307 5318 5317 5332 5334 5339 5346 5345 5346 5349 5355 5353 5359 5363 5356 5350 5348 5359 5379 5383 5382 5379 5368 5372 5376 5377 5375 5376 5371 5362 5357 5359 5353 5344 5336 5335 5330 5324 5315 5307 5301 5294 5292 5287 5279 5272 5264 5257 5248 5238 5225 5217 5209 5202
5308 5315 5329 5337 5344 5344 5351 5355 5357 5353 5351 5350 5358 5344 5341 5340 5355 5373 5370 5367 5372 5369 5372 5371 5375 5374 5376 5376 5371 5361 5356 5349 5346 5338 5331 5326 5322 5320 5314 5308 5301 5294 5287 5281 5275 5268 5260 5250 5240 5232 5221 5210 5202 5193
5311 5321 5316 5324 5331 5339 5337 5341 5341 5343 5348 5355 5355 5345 5348 5358 5371 5362 5359 5350 5351 5355 5355 5356 5361 5366 5369 5358 5351 5345 5338 5334 5329 5324 5319 5311 5306 5304 5302 5300 5295 5288 5281 5274 5268 5261 5253 5244 5235 5225 5214 5202 5191 5183
5307 5318 5320 5311 5315 5325 5332 5336 5341 5348 5355 5355 5352 5353 5354 5358 5344 5348 5340 5340 5341 5344 5346 5344 5341 5343 5342 5340 5339 5335 5330 5327 5325 5319 5315 5306 5299 5293 5290 5287 5283 5277 5271 5264 5258 5252 5245 5237 5228 5216 5204 5193 5184 5174
5300 5309 5306 5307 5306 5314 5329 5335 5338 5333 5342 5340 5345 5343 5345 5336 5328 5327 5328 5330 5333 5336 5336 5335 5333 5334 5333 5332 5326 5320 5319 5319 5318 5319 5317 5307 5302 5290 5285 5280 5274 5268 5262 5255 5248 5238 5232 5224 5215 5205 5195 5186 5176 5167
5292 5298 5300 5301 5303 5311 5315 5306 5306 5309 5315 5319 5320 5327 5336 5328 5320 5319 5322 5324 5325 5326 5326 5326 5326 5325 5325 5321 5319 5317 5314 5310 5311 5310 5308 5301 5293 5286 5281 5276 5270 5264 5256 5248 5240 5234 5226 5218 5210 5201 5192 5181 5170 5162
5273 5279 5286 5291 5298 5290 5290 5294 5302 5307 5309 5309 5316 5317 5315 5318 5327 5317 5314 5315 5317 5319 5321 5322 5322 5319 5318 5315 5312 5310 5310 5305 5302 5300 5297 5292 5286 5280 5274 5269 5263 5257 5250 5243 5237 5229 5223 5215 5207 5197 5185 5174 5167 5157
5260 5265 5272 5277 5285 5281 5282 5286 5290 5300 5301 5306 5315 5317 5319 5324 5327 5307 5302 5304 5309 5314 5315 5314 5313 5311 5309 5308 5305 5302 5300 5298 5294 5291 5287 5283 5277 5272 5267 5262 5257 5251 5246 5240 5233 5226 5218 5210 5200 5191 5180 5170 5159 5150